Flag for USA

Past Weather in Fort Myers, Florida, USA — Yesterday and Last 2 Weeks

Now
85 °F

Broken clouds.


Feels Like: 88 °F
Forecast: 85 / 71 °F
Wind: 13 mph from East

Location: Page Field
Current Time: Sep 22, 2020 at 4:30:57 pm
Latest Report: Sep 22, 2020 at 2:53 pm
Visibility: 10 mi
Pressure29.98 "Hg
Humidity: 55%
Dew Point: 67 °F
Location of Fort MyersLocation

Past Weather in Fort Myers — Graph

°F

Fort Myers Temperature Yesterday

Maximum temperature yesterday: 87 °F (at 1:53 pm)
Minimum temperature yesterday: 76 °F (at 2:53 am)
Average temperature yesterday: 78 °F

High & Low Weather Summary for the Past Weeks

 TemperatureHumidityPressure
High91 °F (Sep 11, 2:53 pm)100% (Sep 7, 5:17 pm)30.05 "Hg (Sep 7, 5:17 pm)
Low72 °F (Sep 22, 3:53 am)51% (Sep 22, 12:53 pm)29.69 "Hg (Sep 12, 5:53 pm)
Average80 °F88%29.91 "Hg
* Reported Sep 7 2:53 pm — Sep 22 2:53 pm, Fort Myers. Weather by CustomWeather, © 2020

Note: Actual official high and low records may vary slightly from our data, if they occured in-between our weather recording intervals... More about our weather records

Fort Myers Weather History for the Previous 24 Hours

Scroll right to see more
 ConditionsComfort  
Time TempWeatherWind HumidityBarometerVisibility
2:53 pm
Tue, Sep 22
85 °FBroken clouds.13 mph55%29.98 "Hg10 mi
1:53 pm86 °FPassing clouds.10 mph55%30.00 "Hg10 mi
12:53 pm86 °FSunny.16 mph51%30.02 "Hg10 mi
11:53 am85 °FPassing clouds.15 mph55%30.04 "Hg10 mi
10:53 am83 °FSunny.13 mph57%30.04 "Hg10 mi
9:53 am80 °FSunny.13 mph64%30.03 "Hg10 mi
8:53 am77 °FSunny.9 mph71%30.02 "Hg10 mi
7:53 am73 °FSunny.7 mph84%30.01 "Hg10 mi
6:53 am72 °FClear.7 mph87%30.00 "Hg10 mi
5:53 am72 °FOvercast.6 mph87%29.99 "Hg10 mi
4:53 am72 °FPassing clouds.8 mph87%29.98 "Hg10 mi
3:53 am72 °FPassing clouds.6 mph84%29.98 "Hg10 mi
2:53 am73 °FPassing clouds.5 mph81%29.99 "Hg10 mi
1:53 am74 °FPassing clouds.7 mph76%30.00 "Hg10 mi
12:53 am75 °FClear.10 mph74%30.01 "Hg10 mi
11:53 pm
Mon, Sep 21
76 °FClear.10 mph72%30.02 "Hg10 mi
10:53 pm77 °FClear.15 mph69%30.02 "Hg10 mi
9:53 pm78 °FClear.15 mph69%30.02 "Hg10 mi
8:53 pm78 °FOvercast.14 mph74%30.01 "Hg10 mi
7:53 pm79 °FOvercast.16 mph72%29.99 "Hg10 mi
6:53 pm81 °FMostly cloudy.13 mph69%29.98 "Hg10 mi
5:53 pm81 °FMostly cloudy.18 mph72%29.97 "Hg10 mi
4:53 pm83 °FOvercast.15 mph70%29.97 "Hg10 mi
Weather by CustomWeather, © 2020

See weather overview